Regional Weather Roundup
Issued by NWS

Home | Current Version | Previous Version | Graphics & Text | Print | Product List | Glossary On
Versions: 1 2 3 4 5 6 7 8 9 10 11 12 13 14 15 16 17 18 19 20 21 22 23 24 25 26 27 28 29 30 31 32 33 34 35 36 37 38 39 40 41 42 43 44 45 46 47 48 49 50
000
ASUS44 KMEG 290710
RWRTN
TENNESSEE HOURLY STATE WEATHER ROUNDUP
NATIONAL WEATHER SERVICE MEMPHIS TN
100 AM CST THU JAN 29 2015

TNZ002-004-019-021-049-052-054-088>092-290800-
WEST TENNESSEE

CITY           SKY/WX    TMP DP  RH WIND       PRES   REMARKS
MEMPHIS INTL   PTCLDY    55  35  47 S14       30.05F
NWS MEMPHIS      N/A     55 N/A N/A MISG        N/A
JACKSON        MOCLDY    50  30  46 S14G22    30.05S
DYERSBURG      MOCLDY    52  27  37 S9        30.04S
UNION CITY     PTCLDY    48  34  57 S10       30.00S
PARIS          MOCLDY    46  28  49 S13       30.03F
LEXINGTON      CLEAR     46  28  49 S13       30.07F
SAVANNAH       CLEAR     48  28  46 S15       30.11F
$$

TNZ008-025-027-028-033-062-065-066-290800-
NORTH MIDDLE TENNESSEE

CITY           SKY/WX    TMP DP  RH WIND       PRES   REMARKS
NASHVILLE      MOCLDY    44  28  53 S10       30.12F
CLARKSVILLE    CLOUDY    45  29  53 S8        30.04F
SMYRNA         MOCLDY    42  26  53 S9        30.15F
COOKEVILLE     CLEAR     39  18  41 S8        30.15R WCI  34
CROSSVILLE     MOCLDY    38  12  34 S7        30.17F WCI  33
$$

TNZ061-075-076-078-094-096-097-290800-
SOUTH MIDDLE TENNESSEE

CITY           SKY/WX    TMP DP  RH WIND       PRES   REMARKS
FAYETTEVILLE   CLEAR     41  21  45 MISG      30.18R
TULLAHOMA      CLEAR     39  19  45 CALM      30.17S
WINCHESTER     CLEAR     43  23  45 SE9       30.19F
MCMINNVILLE    CLEAR     32  27  80 CALM      30.16S
COLUMBIA       CLEAR     46  30  53 S12       30.11F
SHELBYVILLE    CLEAR     41  25  52 SE7       30.17S
$$

TNZ017-018-042-046-047-290800-
NORTHEAST TENNESSEE

CITY           SKY/WX    TMP DP  RH WIND       PRES   REMARKS
TRI CITIES     PTCLDY    24  20  84 CALM      30.22F
ELIZABETHTON   SUNNY     27  19  74 NE5       30.21F WCI  21
$$

TNZ012-013-036-069-073-074-290800-
CENTRAL EAST TENNESSEE

CITY           SKY/WX    TMP DP  RH WIND       PRES   REMARKS
KNOXVILLE      CLOUDY    29  23  78 SE3       30.23F
OAK RIDGE      PTCLDY    29  23  78 CALM      30.25F
GATLINBURG     SUNNY     23  19  86 CALM      30.22F
MORRISTOWN     SUNNY     28  19  69 CALM      30.21F
$$

TNZ083-085-099-290800-
SOUTHEAST TENNESSEE

CITY           SKY/WX    TMP DP  RH WIND       PRES   REMARKS
CHATTANOOGA    PTCLDY    31  25  78 S3        30.26S
$$

SKY/WX REPORTED AS FAIR MEANS FEW OR NO CLOUDS BELOW
12 THOUSAND FEET.




USA.gov is the U.S. government's official web portal to all federal, state and local government web resources and services.